| time (UTC) | temp C | wind direction | speed KPH | gust KPH | rain 1hr cm | rain 24hr cm | rain mn cm | humidity % | barometer mb |
| 20260507073216 | 12 | 328 | 3.2 | 6.4 | 0.00 | 0.00 | 0.00 | 67 | 1014.2 |
| 20260507072216 | 11 | 36 | 3.2 | 4.8 | 0.00 | 0.03 | 0.00 | 68 | 1014.1 |
| 20260507071216 | 11 | 359 | 0.0 | 1.6 | 0.00 | 0.03 | 0.00 | 70 | 1014.0 |
| 20260507070215 | 10 | 0.0 | 0.0 | 0.00 | 0.03 | 0.00 | 73 | 1014.0 | |
| 20260507065240 | 9 | 317 | 0.0 | 6.4 | 0.00 | 0.03 | 0.00 | 76 | 1014.0 |
| 20260507064217 | 9 | 321 | 1.6 | 4.8 | 0.00 | 0.05 | 0.00 | 78 | 1014.0 |
| 20260507063215 | 8 | 0.0 | 0.0 | 0.00 | 0.05 | 0.00 | 80 | 1014.0 | |
| 20260507062216 | 8 | 317 | 3.2 | 14.5 | 0.00 | 0.05 | 0.00 | 81 | 1013.9 |
| 20260507061216 | 8 | 0.0 | 0.0 | 0.00 | 0.05 | 0.00 | 84 | 1013.8 | |
| 20260507060216 | 7 | 0.0 | 0.0 | 0.00 | 0.08 | 0.00 | 86 | 1013.7 | |
| 20260507055239 | 7 | 0.0 | 0.0 | 0.00 | 0.08 | 0.00 | 86 | 1013.6 | |
| 20260507054240 | 7 | 0.0 | 0.0 | 0.00 | 0.08 | 0.00 | 87 | 1013.5 | |
| 20260507053238 | 7 | 0.0 | 0.0 | 0.00 | 0.08 | 0.00 | 87 | 1013.6 | |
| 20260507052216 | 6 | 0.0 | 0.0 | 0.00 | 0.08 | 0.00 | 88 | 1013.5 | |
| 20260507051216 | 6 | 0.0 | 0.0 | 0.00 | 0.08 | 0.00 | 87 | 1013.3 | |
| 20260507050216 | 6 | 0.0 | 0.0 | 0.00 | 0.08 | 0.00 | 88 | 1013.2 | |
| 20260507045215 | 6 | 0.0 | 0.0 | 0.00 | 0.08 | 0.00 | 88 | 1013.1 | |
| 20260507044216 | 7 | 0.0 | 0.0 | 0.00 | 0.08 | 0.00 | 88 | 1013.0 | |
| 20260507043216 | 7 | 0.0 | 0.0 | 0.00 | 0.08 | 0.00 | 88 | 1012.9 | |
| 20260507042216 | 7 | 0.0 | 0.0 | 0.00 | 0.10 | 0.00 | 87 | 1012.8 | |
| 20260507041215 | 7 | 0.0 | 0.0 | 0.00 | 0.10 | 0.00 | 87 | 1012.8 | |
| 20260507040215 | 7 | 0.0 | 0.0 | 0.00 | 0.15 | 0.00 | 87 | 1012.6 | |
| 20260507035236 | 7 | 0.0 | 0.0 | 0.00 | 0.18 | 0.00 | 87 | 1012.5 | |
| 20260507034215 | 7 | 0.0 | 0.0 | 0.00 | 0.18 | 0.00 | 87 | 1012.5 | |
| 20260507033216 | 7 | 0.0 | 0.0 | 0.00 | 0.20 | 0.00 | 87 | 1012.5 | |
| 20260507032216 | 7 | 0.0 | 0.0 | 0.00 | 0.20 | 0.00 | 87 | 1012.5 | |
| 20260507031235 | 7 | 0.0 | 0.0 | 0.00 | 0.20 | 0.00 | 87 | 1012.5 | |
| 20260507030215 | 8 | 0.0 | 0.0 | 0.00 | 0.20 | 0.00 | 87 | 1012.4 | |
| 20260507025215 | 8 | 0.0 | 0.0 | 0.00 | 0.20 | 0.00 | 87 | 1012.4 | |
| 20260507024215 | 8 | 0.0 | 0.0 | 0.00 | 0.20 | 0.00 | 87 | 1012.4 | |
| 20260507023215 | 8 | 0.0 | 0.0 | 0.00 | 0.23 | 0.00 | 87 | 1012.2 | |
| 20260507022215 | 8 | 0.0 | 0.0 | 0.00 | 0.23 | 0.00 | 87 | 1012.2 | |
| 20260507021215 | 8 | 0.0 | 0.0 | 0.00 | 0.23 | 0.00 | 87 | 1012.2 | |
| 20260507020215 | 8 | 0.0 | 0.0 | 0.00 | 0.23 | 0.00 | 87 | 1012.1 | |
| 20260507015215 | 8 | 0.0 | 0.0 | 0.00 | 0.23 | 0.00 | 87 | 1012.0 | |
| 20260507014215 | 8 | 0.0 | 0.0 | 0.00 | 0.23 | 0.00 | 87 | 1012.0 | |
| 20260507013215 | 8 | 0.0 | 0.0 | 0.00 | 0.23 | 0.00 | 87 | 1012.0 | |
| 20260507012215 | 8 | 0.0 | 0.0 | 0.00 | 0.23 | 0.00 | 87 | 1012.0 | |
| 20260507011215 | 8 | 0.0 | 0.0 | 0.00 | 0.25 | 0.00 | 87 | 1011.9 | |
| 20260507010255 | 8 | 0.0 | 0.0 | 0.00 | 0.25 | 0.00 | 87 | 1011.8 | |
| 20260507005215 | 8 | 0.0 | 0.0 | 0.00 | 0.25 | 0.00 | 87 | 1011.8 | |
| 20260507004215 | 8 | 0.0 | 0.0 | 0.00 | 0.25 | 0.00 | 86 | 1011.7 | |
| 20260507003215 | 8 | 0.0 | 0.0 | 0.00 | 0.25 | 0.00 | 86 | 1011.7 | |
| 20260507002215 | 8 | 0.0 | 0.0 | 0.00 | 0.25 | 0.00 | 86 | 1011.6 | |
| 20260507001215 | 8 | 0.0 | 0.0 | 0.00 | 0.28 | 0.00 | 86 | 1011.6 | |
| 20260507000215 | 8 | 0.0 | 0.0 | 0.00 | 0.28 | 0.00 | 86 | 1011.6 | |
| 20260506235215 | 8 | 0.0 | 0.0 | 0.00 | 0.28 | 0.00 | 86 | 1011.6 | |
| 20260506234215 | 8 | 0.0 | 0.0 | 0.00 | 0.28 | 0.00 | 86 | 1011.6 | |
| 20260506233215 | 8 | 0.0 | 0.0 | 0.00 | 0.28 | 0.00 | 86 | 1011.5 | |
| 20260506232235 | 8 | 0.0 | 0.0 | 0.00 | 0.28 | 0.00 | 86 | 1011.4 | |
| 20260506231215 | 8 | 0.0 | 0.0 | 0.00 | 0.28 | 0.00 | 86 | 1011.5 | |
| 20260506230235 | 8 | 0.0 | 0.0 | 0.00 | 0.28 | 0.00 | 86 | 1011.4 | |
| 20260506225215 | 8 | 0.0 | 0.0 | 0.00 | 0.30 | 0.00 | 86 | 1011.3 | |
| 20260506224215 | 8 | 0.0 | 0.0 | 0.00 | 0.30 | 0.00 | 86 | 1011.2 | |
| 20260506223255 | 8 | 0.0 | 0.0 | 0.00 | 0.30 | 0.00 | 85 | 1011.2 | |
| 20260506222215 | 8 | 0.0 | 0.0 | 0.00 | 0.30 | 0.00 | 85 | 1011.2 | |
| 20260506221215 | 8 | 0.0 | 0.0 | 0.00 | 0.33 | 0.00 | 85 | 1011.1 | |
| 20260506220216 | 8 | 0.0 | 0.0 | 0.00 | 0.33 | 0.00 | 85 | 1011.1 | |
| 20260506215216 | 8 | 0.0 | 0.0 | 0.00 | 0.33 | 0.33 | 85 | 1011.0 | |
| 20260506214215 | 8 | 0.0 | 0.0 | 0.00 | 0.33 | 0.33 | 85 | 1011.0 | |
| 20260506213213 | 8 | 0.0 | 0.0 | 0.00 | 0.33 | 0.33 | 85 | 1010.9 | |
| 20260506212233 | 8 | 0.0 | 0.0 | 0.00 | 0.33 | 0.33 | 85 | 1010.8 | |
| 20260506211215 | 8 | 0.0 | 0.0 | 0.00 | 0.33 | 0.33 | 85 | 1010.8 | |
| 20260506210215 | 8 | 0.0 | 0.0 | 0.00 | 0.33 | 0.33 | 84 | 1010.7 | |
| 20260506205215 | 8 | 0.0 | 0.0 | 0.00 | 0.33 | 0.33 | 83 | 1010.7 | |
| 20260506204213 | 8 | 0.0 | 0.0 | 0.00 | 0.33 | 0.33 | 83 | 1010.7 | |
| 20260506203215 | 8 | 0.0 | 0.0 | 0.00 | 0.33 | 0.33 | 83 | 1010.7 | |
| 20260506202215 | 8 | 0.0 | 0.0 | 0.00 | 0.33 | 0.33 | 83 | 1010.6 | |
| 20260506201213 | 8 | 0.0 | 0.0 | 0.00 | 0.33 | 0.33 | 83 | 1010.6 | |
| 20260506200213 | 8 | 0.0 | 0.0 | 0.00 | 0.33 | 0.33 | 83 | 1010.5 | |
| 20260506195213 | 8 | 0.0 | 0.0 | 0.00 | 0.33 | 0.33 | 83 | 1010.4 | |
| 20260506194213 | 9 | 0.0 | 0.0 | 0.00 | 0.33 | 0.33 | 82 | 1010.3 | |
| 20260506193215 | 9 | 0.0 | 0.0 | 0.00 | 0.33 | 0.33 | 82 | 1010.2 | |
| 20260506192215 | 9 | 0.0 | 0.0 | 0.00 | 0.33 | 0.33 | 82 | 1010.1 | |
| 20260506191235 | 9 | 0.0 | 0.0 | 0.00 | 0.33 | 0.33 | 81 | 1010.0 | |
| 20260506190217 | 9 | 0.0 | 0.0 | 0.00 | 0.33 | 0.33 | 81 | 1009.9 | |
| 20260506185217 | 9 | 0.0 | 0.0 | 0.00 | 0.33 | 0.33 | 80 | 1009.8 | |
| 20260506184218 | 9 | 0.0 | 0.0 | 0.00 | 0.33 | 0.33 | 80 | 1009.7 | |
| 20260506183217 | 9 | 0.0 | 0.0 | 0.00 | 0.33 | 0.33 | 79 | 1009.7 | |
| 20260506182217 | 9 | 0.0 | 0.0 | 0.00 | 0.33 | 0.33 | 79 | 1009.5 | |
| 20260506181217 | 10 | 0.0 | 0.0 | 0.00 | 0.33 | 0.33 | 79 | 1009.3 | |
| 20260506180217 | 10 | 0.0 | 0.0 | 0.00 | 0.33 | 0.33 | 79 | 1009.2 | |
| 20260506175217 | 10 | 0.0 | 0.0 | 0.00 | 0.33 | 0.33 | 79 | 1009.2 | |
| 20260506174237 | 10 | 88 | 0.0 | 1.6 | 0.00 | 0.33 | 0.33 | 78 | 1009.1 |
| 20260506173217 | 10 | 0.0 | 0.0 | 0.00 | 0.33 | 0.33 | 78 | 1009.0 | |
| 20260506172217 | 10 | 0.0 | 4.8 | 0.00 | 0.33 | 0.33 | 77 | 1008.9 | |
| 20260506171217 | 10 | 0.0 | 0.0 | 0.00 | 0.33 | 0.33 | 77 | 1008.8 | |
| 20260506170237 | 10 | 0.0 | 0.0 | 0.00 | 0.33 | 0.33 | 76 | 1008.7 | |
| 20260506165217 | 10 | 0.0 | 0.0 | 0.00 | 0.33 | 0.33 | 75 | 1008.6 | |
| 20260506164217 | 10 | 5 | 0.0 | 1.6 | 0.00 | 0.33 | 0.33 | 75 | 1008.6 |
| 20260506163216 | 10 | 0.0 | 0.0 | 0.00 | 0.33 | 0.33 | 74 | 1008.5 | |
| 20260506162217 | 10 | 0.0 | 1.6 | 0.00 | 0.33 | 0.33 | 73 | 1008.5 | |
| 20260506161217 | 11 | 0.0 | 0.0 | 0.00 | 0.33 | 0.33 | 72 | 1008.5 | |
| 20260506160217 | 11 | 0.0 | 0.0 | 0.00 | 0.33 | 0.33 | 72 | 1008.4 | |
| 20260506155237 | 11 | 0.0 | 1.6 | 0.00 | 0.33 | 0.33 | 69 | 1008.4 | |
| 20260506154216 | 11 | 316 | 0.0 | 4.8 | 0.00 | 0.33 | 0.33 | 68 | 1008.3 |
| 20260506153216 | 11 | 342 | 0.0 | 3.2 | 0.00 | 0.33 | 0.33 | 67 | 1008.3 |
| 20260506152217 | 11 | 319 | 6.4 | 12.9 | 0.00 | 0.33 | 0.33 | 67 | 1008.2 |
| 20260506151217 | 11 | 0.0 | 0.0 | 0.00 | 0.33 | 0.33 | 68 | 1008.2 | |
| 20260506150217 | 11 | 0.0 | 0.0 | 0.00 | 0.33 | 0.33 | 69 | 1008.2 | |
| 20260506145216 | 11 | 0.0 | 0.0 | 0.00 | 0.33 | 0.33 | 67 | 1008.2 | |
| 20260506144216 | 11 | 315 | 0.0 | 3.2 | 0.00 | 0.33 | 0.33 | 69 | 1008.2 |
| 20260506143237 | 11 | 0.0 | 6.4 | 0.00 | 0.33 | 0.33 | 70 | 1008.1 | |
| 20260506142216 | 11 | 0.0 | 0.0 | 0.00 | 0.33 | 0.33 | 72 | 1008.1 | |
| 20260506141217 | 11 | 337 | 1.6 | 4.8 | 0.00 | 0.33 | 0.33 | 71 | 1008.2 |
| 20260506140237 | 11 | 0.0 | 0.0 | 0.00 | 0.33 | 0.33 | 72 | 1008.1 | |
| 20260506135236 | 11 | 0.0 | 1.6 | 0.00 | 0.33 | 0.33 | 72 | 1008.1 | |
| 20260506134216 | 11 | 333 | 1.6 | 11.3 | 0.00 | 0.33 | 0.33 | 73 | 1008.1 |
| 20260506133216 | 11 | 0.0 | 0.0 | 0.00 | 0.33 | 0.33 | 75 | 1008.1 | |
| 20260506132216 | 11 | 323 | 0.0 | 4.8 | 0.00 | 0.33 | 0.33 | 76 | 1008.1 |
| 20260506131216 | 11 | 0.0 | 0.0 | 0.00 | 0.33 | 0.33 | 78 | 1008.0 | |
| 20260506130216 | 11 | 0.0 | 0.0 | 0.00 | 0.33 | 0.33 | 77 | 1008.0 | |
| 20260506125216 | 11 | 0.0 | 0.0 | 0.00 | 0.33 | 0.33 | 76 | 1007.9 | |
| 20260506124236 | 11 | 0.0 | 0.0 | 0.00 | 0.33 | 0.33 | 76 | 1007.9 | |
| 20260506123216 | 11 | 0.0 | 0.0 | 0.00 | 0.33 | 0.33 | 76 | 1007.8 | |
| 20260506122216 | 11 | 326 | 0.0 | 6.4 | 0.00 | 0.33 | 0.33 | 78 | 1007.7 |
| 20260506121216 | 11 | 0.0 | 0.0 | 0.00 | 0.33 | 0.33 | 79 | 1007.7 | |
| 20260506120236 | 10 | 0.0 | 1.6 | 0.00 | 0.33 | 0.33 | 81 | 1007.7 | |
| 20260506115216 | 10 | 0.0 | 0.0 | 0.00 | 0.36 | 0.33 | 82 | 1007.6 | |
| 20260506114216 | 10 | 0.0 | 0.0 | 0.00 | 0.36 | 0.33 | 83 | 1007.7 | |
| 20260506113216 | 10 | 0.0 | 3.2 | 0.00 | 0.36 | 0.33 | 82 | 1007.6 | |
| 20260506112216 | 10 | 10 | 0.0 | 11.3 | 0.00 | 0.36 | 0.33 | 83 | 1007.5 |
| 20260506111236 | 10 | 326 | 0.0 | 6.4 | 0.00 | 0.36 | 0.33 | 85 | 1007.5 |
| 20260506110236 | 10 | 0.0 | 0.0 | 0.00 | 0.36 | 0.33 | 85 | 1007.5 | |
| 20260506105236 | 10 | 320 | 1.6 | 9.7 | 0.00 | 0.36 | 0.33 | 86 | 1007.5 |
| 20260506104236 | 10 | 0.0 | 0.0 | 0.00 | 0.36 | 0.33 | 86 | 1007.5 | |
| 20260506103216 | 10 | 13 | 0.0 | 1.6 | 0.00 | 0.36 | 0.33 | 85 | 1007.4 |
| 20260506102216 | 10 | 330 | 1.6 | 11.3 | 0.00 | 0.36 | 0.33 | 86 | 1007.3 |
| 20260506101216 | 10 | 360 | 0.0 | 1.6 | 0.00 | 0.36 | 0.33 | 86 | 1007.2 |
| 20260506100216 | 10 | 15 | 0.0 | 1.6 | 0.00 | 0.36 | 0.33 | 86 | 1007.1 |
| 20260506095216 | 10 | 340 | 0.0 | 6.4 | 0.00 | 0.36 | 0.33 | 88 | 1007.1 |
| 20260506094236 | 10 | 323 | 1.6 | 8.0 | 0.00 | 0.36 | 0.33 | 88 | 1007.0 |
| 20260506093236 | 10 | 337 | 1.6 | 8.0 | 0.00 | 0.36 | 0.33 | 88 | 1007.0 |
| 20260506092216 | 10 | 0.0 | 4.8 | 0.00 | 0.36 | 0.33 | 89 | 1006.9 | |
| 20260506091216 | 10 | 0.0 | 6.4 | 0.00 | 0.36 | 0.33 | 89 | 1006.8 | |
| 20260506090216 | 10 | 319 | 0.0 | 9.7 | 0.00 | 0.36 | 0.33 | 89 | 1006.7 |
| 20260506085216 | 10 | 0.0 | 0.0 | 0.00 | 0.36 | 0.33 | 89 | 1006.7 | |
| 20260506084217 | 9 | 0.0 | 0.0 | 0.00 | 0.36 | 0.33 | 89 | 1006.7 | |
| 20260506083216 | 10 | 331 | 0.0 | 1.6 | 0.00 | 0.36 | 0.33 | 89 | 1006.6 |
| 20260506082216 | 10 | 315 | 4.8 | 14.5 | 0.03 | 0.36 | 0.33 | 90 | 1006.5 |
| 20260506081216 | 9 | 329 | 0.0 | 3.2 | 0.03 | 0.36 | 0.33 | 90 | 1006.4 |
| 20260506080216 | 9 | 345 | 1.6 | 12.9 | 0.03 | 0.36 | 0.33 | 90 | 1006.4 |